Temperature
15 13 13 13 13 14 14 14 13 13 14 14 13 12 14 15 14 14 15 16 17 17 17 16 16 16 16 16 15 15 15 14 13 12 11 11 10 10 10 9 9 9 9 9
13 12 13 14 13 13 14 13 13 13 13 13 12 12 13 12 13 15 15 16 17 17 16 16 16 16 16 15 15 15 14 14 13 12 11 11 10 10 10 9 9 9 9 9
13 14 14 13 13 13 13 13 13 13 13 13 13 12 13 13 13 14 14 15 16 16 17 16 16 15 15 15 14 14 14 13 13 12 11 11 10 10 10 9 9 9 9 8
12 13 14 13 13 12 12 13 13 13 13 11 13 11 13 13 12 12 13 13 14 15 16 16 16 15 15 14 14 13 13 13 12 12 11 11 11 10 10 10 9 9 9 8
12 12 13 13 13 12 13 14 13 13 13 11 11 11 12 12 13 13 12 13 14 14 15 15 15 15 14 13 13 13 13 12 12 12 11 11 11 10 10 10 9 9 8 8
12 13 13 13 14 13 13 12 11 9 10 11 11 10 11 12 13 13 13 13 13 14 14 14 14 14 13 13 13 13 12 12 12 12 11 11 11 11 10 10 9 9 8 8
13 13 13 13 13 13 13 12 11 11 10 10 11 10 11 12 12 12 12 13 13 13 13 13 13 13 13 13 13 12 12 12 12 12 11 11 11 10 10 9 9 8 8 7
11 12 12 12 13 12 12 12 11 12 11 10 10 10 12 12 13 13 13 13 13 13 13 13 14 13 13 13 12 12 12 12 12 11 11 11 10 10 10 9 9 8 7 7
11 11 13 12 13 12 11 11 11 10 10 10 10 10 11 13 13 13 12 12 12 13 13 13 13 13 13 13 13 12 12 12 11 11 11 10 10 10 9 9 8 8 7 7
11 11 12 12 12 12 11 10 9 10 10 10 10 11 12 14 14 13 11 12 12 13 13 13 13 13 13 13 12 12 12 12 11 11 10 10 9 9 9 8 8 7 7 6
11 12 11 11 11 11 10 10 10 9 9 10 10 11 12 13 13 12 12 13 13 14 14 14 14 13 13 12 12 12 11 11 11 10 10 9 9 8 8 8 7 7 6 6
11 10 10 10 11 11 11 10 9 10 9 8 9 11 12 12 12 12 13 14 15 15 15 14 14 13 13 12 12 12 11 11 10 10 9 9 8 8 8 7 7 6 6 5
11 10 10 11 10 10 10 10 10 10 9 7 8 11 12 12 13 14 15 15 16 16 15 14 14 13 13 12 12 12 11 11 10 9 9 8 8 8 7 7 6 6 5 5
11 9 11 11 11 9 9 10 9 9 9 8 8 11 12 13 13 13 15 16 16 16 15 15 14 14 13 13 12 12 11 10 10 9 9 8 8 7 7 6 6 5 5 5
10 10 10 11 11 10 10 10 9 9 10 10 10 10 13 13 12 14 15 15 15 15 15 15 14 14 13 12 12 11 11 10 9 9 8 8 7 6 6 6 5 5 4 4
9 10 10 11 11 10 11 10 9 9 10 10 10 10 12 12 13 13 14 14 14 15 15 15 14 14 13 13 12 11 10 10 9 8 8 7 6 6 6 5 5 4 4 4
8 9 9 9 11 10 10 10 10 9 9 10 11 12 12 11 10 12 14 14 15 15 15 14 14 14 13 13 12 11 10 9 8 8 7 7 6 6 5 5 4 4 3 3
9 9 8 8 9 10 11 11 11 10 10 9 10 11 11 11 13 13 14 14 15 14 14 14 14 13 13 12 11 10 9 8 8 7 7 6 6 5 5 4 4 3 3 3
8 8 7 7 8 9 10 11 10 10 10 10 10 10 11 11 11 12 14 14 14 14 13 13 13 12 12 11 10 9 8 8 7 7 6 6 5 5 4 4 3 3 2 2
7 7 7 6 8 9 11 12 11 11 11 11 10 9 9 9 9 11 13 13 13 13 13 12 12 11 11 10 9 8 8 7 7 6 6 5 4 4 4 3 3 2 2 1
7 7 7 7 8 8 10 11 11 11 12 13 12 11 10 9 11 13 13 13 12 12 12 11 11 10 10 9 8 7 7 6 6 5 5 4 4 3 3 3 2 2 1 1
8 7 6 6 8 9 10 9 10 11 13 13 13 13 12 12 12 12 12 12 12 11 11 10 10 9 8 8 7 7 6 6 5 4 4 4 3 3 2 2 2 1 0 0
7 9 8 8 10 10 11 12 13 13 13 14 14 14 13 12 12 12 12 11 11 10 10 9 8 8 7 7 6 6 5 5 4 4 3 3 3 2 2 1 1 0 -0 -1
6 6 6 7 7 9 11 12 13 13 14 14 14 13 13 13 12 11 11 10 10 9 8 8 7 7 6 6 5 5 4 4 3 3 3 2 2 2 1 1 -0 -1 -1 -2
7 5 6 7 7 8 11 13 13 13 13 13 13 13 12 12 11 11 10 10 9 8 7 7 6 6 5 5 4 4 3 3 3 2 2 2 1 1 0 -0 -1 -2 -2 -3
5 6 7 9 9 9 11 15 14 13 13 13 12 12 11 11 10 10 9 9 8 7 7 6 5 5 4 4 3 3 3 2 2 2 2 1 1 -0 -1 -1 -2 -2 -3 -3
Wind_Speed
3 4 6 9 10 6 4 4 6 8 6 4 10 14 18 12 9 11 11 11 11 11 6 3 2 2 3 5 8 9 10 9 9 6 5 5 4 3 2 3 4 4 4 4
4 6 10 6 5 4 4 5 7 8 5 4 8 13 14 12 11 12 12 13 13 9 6 5 4 3 4 5 7 9 10 10 9 7 5 4 4 3 3 4 5 5 5 4
11 6 5 7 5 6 6 6 7 8 7 5 6 10 9 8 6 7 9 9 10 12 11 9 7 5 5 6 7 8 9 9 9 8 6 5 5 4 3 2 2 4 5 5
8 6 5 5 7 9 7 8 7 5 3 6 3 7 10 8 9 8 8 8 9 9 9 8 8 7 6 5 5 7 8 8 8 9 8 7 5 4 3 3 2 3 6 6
9 6 8 9 9 11 8 1 3 1 3 4 3 4 10 7 8 10 8 8 8 9 10 10 9 8 6 6 6 7 8 8 7 7 8 8 6 4 4 3 4 3 4 5
6 5 8 9 5 8 6 6 5 5 4 4 5 6 9 6 7 8 6 5 7 8 9 8 7 7 6 5 6 7 8 7 7 7 8 8 9 8 6 4 4 2 2 2
4 4 4 5 6 4 5 5 3 4 2 7 3 4 10 11 8 8 11 8 7 9 9 9 10 9 8 8 8 7 9 7 7 8 7 8 8 8 7 6 5 3 2 1
9 7 9 8 8 8 7 9 7 5 5 5 2 7 10 10 8 8 7 6 6 9 9 10 10 10 9 9 9 9 9 8 8 8 7 7 7 5 5 5 4 4 3 2
11 8 2 6 5 11 8 7 7 5 2 4 7 8 11 7 6 5 4 1 6 9 10 10 9 9 10 10 10 10 10 8 8 8 7 7 7 6 6 5 4 3 3 2
10 6 3 3 6 3 7 9 6 6 5 5 7 6 6 8 8 7 5 5 6 7 8 9 9 9 9 9 8 8 9 9 8 8 7 6 6 6 6 5 5 4 3 2
8 7 3 3 8 10 7 6 6 6 5 5 4 7 7 7 7 8 8 6 7 9 10 10 9 8 8 8 8 8 8 8 8 8 7 7 6 5 5 5 4 4 3 3
8 7 5 7 4 7 8 10 9 7 6 6 4 8 7 7 8 7 8 6 5 8 8 8 8 8 9 9 9 9 9 9 8 8 8 7 6 6 5 5 4 4 3 3
10 8 5 0 1 2 5 6 8 6 6 6 6 8 5 4 6 5 6 5 4 6 7 7 8 10 10 10 10 10 10 9 8 8 8 7 7 6 6 5 4 4 4 3
9 7 9 12 8 8 7 8 8 8 6 7 10 11 11 9 9 8 7 6 4 5 7 8 9 10 10 10 11 10 10 9 9 9 8 8 7 7 6 5 4 4 4 4
8 8 8 7 6 8 8 9 11 12 12 11 11 12 16 12 10 9 7 6 5 5 6 8 9 9 9 10 10 10 10 9 10 9 9 8 6 5 5 4 4 4 4 5
8 8 8 6 7 7 6 9 12 12 10 11 10 12 13 9 6 7 8 7 7 7 7 7 8 9 10 11 11 10 10 10 10 10 8 7 6 5 5 4 4 4 4 5
9 9 7 5 3 4 8 11 12 9 9 11 14 16 10 6 9 9 8 8 8 7 6 6 7 8 9 10 10 11 10 9 9 8 7 6 6 5 5 4 3 4 5 5
11 10 6 5 5 7 9 6 10 11 10 12 10 10 9 9 7 6 6 7 7 5 4 4 5 5 5 6 7 8 9 9 9 8 7 6 5 5 4 3 4 5 4 5
6 9 6 6 6 7 9 6 9 10 10 11 14 12 7 2 0 4 5 5 5 3 2 3 3 4 5 7 8 9 8 8 7 7 6 6 5 5 4 5 6 5 4 6
6 6 7 6 6 8 9 4 6 6 7 9 11 12 7 7 3 5 2 4 3 2 2 3 4 5 6 6 8 9 8 7 7 6 5 5 5 5 5 6 5 4 4 6
6 5 6 6 6 8 9 4 8 6 9 4 8 9 10 9 6 3 4 4 4 4 4 5 6 6 6 7 8 8 7 6 5 4 4 4 4 4 5 4 4 5 5 6
10 8 7 7 5 9 6 9 10 10 3 4 6 7 9 7 4 4 4 4 5 5 5 6 6 6 5 6 8 7 5 4 4 4 3 3 3 3 3 4 5 5 6 7
9 10 9 10 9 5 8 9 7 5 6 6 6 7 8 7 6 5 4 5 5 5 5 5 7 7 5 5 6 6 4 4 4 3 2 3 3 4 4 5 6 5 5 6
5 3 6 5 8 7 7 6 5 7 7 6 6 7 9 8 7 6 5 5 5 5 5 5 7 7 4 3 4 4 4 4 3 2 3 3 4 5 5 4 5 5 6 7
8 8 6 6 7 4 7 10 9 7 6 6 5 6 8 8 7 7 6 6 6 5 4 5 6 6 5 4 3 3 3 3 2 2 3 4 4 5 6 6 6 7 7 8
7 10 10 9 9 9 8 7 9 9 9 9 8 6 5 7 7 7 6 6 6 6 5 5 5 5 4 4 3 2 2 3 2 3 4 4 4 5 5 6 8 11 13 18
Wind_Direction
108 119 196 207 199 194 187 221 262 264 273 258 256 265 273 269 241 241 238 228 227 229 226 197 173 128 125 140 151 158 155 154 151 149 148 143 142 130 109 104 109 112 113 115
93 227 221 191 170 184 205 251 269 283 284 242 276 277 270 261 243 233 229 224 220 215 201 190 173 152 148 147 150 151 154 156 158 154 143 132 129 122 112 98 84 84 97 105
189 219 184 163 175 189 216 218 242 264 314 323 320 300 289 285 263 256 237 227 212 203 198 188 177 169 155 156 157 155 153 152 148 138 122 104 92 87 91 85 76 59 86 97
217 231 161 171 195 178 241 230 224 255 301 298 356 302 291 285 296 274 252 230 216 201 187 182 176 170 169 165 149 141 142 143 144 144 147 146 146 148 154 139 113 74 79 90
221 195 181 201 208 178 212 179 161 232 218 295 281 238 284 304 290 284 268 237 220 199 184 180 176 169 160 152 144 137 133 135 141 146 147 139 131 131 125 113 106 86 69 81
220 206 191 205 195 171 141 79 59 49 79 279 238 202 280 266 253 288 297 256 216 192 180 171 160 149 146 143 139 139 137 134 139 140 141 143 142 141 137 134 130 114 88 73
223 232 208 156 114 108 123 106 3 332 332 252 239 213 253 260 257 263 280 276 215 186 175 171 168 168 164 161 158 153 146 142 143 141 142 147 148 150 153 154 154 151 142 138
183 232 205 187 168 166 175 156 175 224 243 284 265 238 257 266 279 282 280 264 193 183 183 183 183 177 173 171 168 162 156 150 151 148 145 144 144 146 150 155 156 163 172 183
179 219 226 191 172 146 149 192 174 148 204 264 271 279 298 288 295 307 324 260 200 195 191 189 185 182 179 178 178 172 163 157 160 155 146 146 149 150 153 153 153 161 176 183
150 190 216 141 95 68 152 147 121 152 200 247 276 272 256 297 316 320 307 268 231 207 198 196 191 189 186 183 177 171 167 165 162 157 155 154 155 155 154 152 163 174 183 180
141 152 149 147 183 176 136 147 151 156 173 184 256 269 232 248 285 296 293 271 229 210 204 200 196 189 182 176 174 175 172 164 162 162 156 151 156 155 155 164 178 183 187 194
148 142 184 221 228 187 173 174 155 170 212 194 206 267 267 254 273 276 286 280 237 215 207 199 190 181 181 184 182 182 178 174 171 163 157 159 158 158 166 180 189 190 202 217
148 144 141 62 327 187 201 193 184 152 143 170 191 259 289 296 292 283 285 288 253 220 205 194 188 190 192 191 188 186 183 178 167 159 158 160 166 172 183 192 197 203 215 236
143 148 180 195 201 178 191 201 182 161 185 209 220 246 278 286 287 291 288 279 257 229 211 202 201 201 197 193 190 187 184 174 165 162 164 171 180 185 191 196 204 216 225 242
143 176 193 202 180 164 187 194 187 198 205 211 230 235 252 254 254 264 271 270 256 244 225 214 210 204 197 192 189 185 180 172 166 165 172 182 181 180 185 199 215 226 238 249
149 168 173 207 201 190 210 213 201 213 221 229 249 262 253 250 244 253 256 254 253 250 238 224 213 203 199 195 190 182 178 172 165 170 177 174 171 178 193 208 220 237 256 265
155 140 152 205 183 146 242 217 199 202 207 197 224 242 251 243 241 241 245 239 240 246 240 225 214 209 203 195 184 181 174 162 163 168 168 169 172 185 202 212 226 248 260 265
153 147 145 148 131 215 238 220 195 205 224 211 222 240 236 230 239 240 227 222 233 238 233 224 211 202 188 169 161 155 150 156 160 162 166 170 175 193 205 219 242 255 257 262
144 141 133 147 191 260 287 245 184 192 245 221 222 239 238 201 281 287 229 206 211 215 206 199 182 163 148 148 147 141 144 148 153 164 173 178 182 195 214 237 252 257 260 268
78 112 128 143 173 222 239 231 160 134 258 241 204 219 196 142 177 259 208 164 150 119 117 123 120 119 130 136 136 137 144 151 168 177 179 179 184 200 224 242 256 256 257 268
118 117 143 158 198 247 245 174 125 162 237 239 189 193 170 183 198 187 122 114 113 106 106 115 118 121 133 136 134 137 145 168 174 159 163 179 196 215 233 246 252 263 271 278
161 158 169 154 184 243 210 149 180 211 206 176 177 174 176 187 154 132 130 128 125 117 115 120 120 116 121 133 135 139 157 161 143 148 168 200 222 237 243 250 266 268 272 281
187 181 177 184 205 226 179 195 208 176 186 192 180 179 167 168 175 163 155 150 143 139 134 127 127 121 117 128 135 144 155 144 142 155 201 234 250 253 250 252 265 275 272 273
232 155 147 212 251 242 227 233 222 196 198 192 178 165 163 168 171 167 161 160 155 147 142 134 131 131 130 129 125 138 145 145 150 192 237 251 261 270 267 257 253 260 266 270
185 162 168 220 258 277 253 224 212 194 188 167 155 163 168 163 166 170 171 170 164 151 142 141 143 143 145 140 133 137 146 147 173 227 251 261 260 265 272 266 254 260 250 256
179 170 174 209 211 194 225 218 184 179 186 176 160 153 155 165 166 161 164 161 154 149 141 137 138 140 144 142 141 148 158 166 197 248 261 262 266 269 268 276 284 274 273 281
Height
1518 1523 1527 1526 1526 1527 1529 1532 1533 1528 1520 1520 1519 1514 1504 1499 1500 1498 1497 1498 1499 1501 1504 1506 1507 1509 1510 1512 1514 1518 1521 1525 1528 1532 1535 1537 1540 1542 1544 1545 1545 1546 1546 1546
1521 1523 1518 1519 1523 1526 1528 1531 1531 1526 1519 1520 1518 1511 1500 1494 1492 1489 1489 1490 1492 1496 1499 1501 1504 1506 1508 1510 1512 1515 1519 1523 1526 1529 1532 1535 1538 1540 1541 1542 1543 1543 1543 1543
1518 1515 1514 1519 1522 1526 1528 1530 1527 1526 1521 1518 1519 1511 1499 1489 1486 1484 1484 1484 1486 1489 1493 1497 1500 1503 1505 1508 1510 1514 1517 1520 1524 1527 1530 1533 1535 1537 1539 1539 1540 1541 1541 1540
1514 1512 1513 1517 1520 1523 1528 1521 1522 1523 1526 1529 1523 1526 1502 1491 1486 1481 1479 1479 1481 1484 1488 1493 1496 1500 1503 1506 1509 1512 1515 1519 1522 1525 1527 1530 1532 1534 1536 1537 1538 1538 1538 1538
1511 1509 1511 1514 1514 1517 1519 1517 1520 1522 1525 1530 1526 1528 1507 1493 1487 1479 1476 1476 1477 1480 1484 1489 1493 1497 1501 1504 1507 1510 1513 1516 1520 1522 1525 1528 1530 1532 1534 1535 1535 1536 1536 1535
1505 1504 1505 1506 1507 1511 1514 1520 1525 1530 1532 1536 1526 1530 1515 1494 1485 1479 1475 1474 1475 1478 1482 1487 1491 1495 1499 1502 1505 1508 1511 1514 1517 1520 1523 1526 1528 1530 1531 1532 1533 1533 1533 1533
1506 1503 1502 1503 1508 1511 1514 1525 1536 1535 1538 1535 1523 1525 1510 1485 1480 1478 1475 1473 1473 1476 1480 1484 1488 1492 1496 1499 1503 1506 1509 1512 1516 1518 1521 1524 1526 1527 1529 1530 1530 1531 1531 1530
1509 1508 1501 1500 1503 1510 1514 1518 1533 1536 1537 1532 1522 1523 1498 1480 1476 1474 1472 1471 1471 1474 1478 1482 1486 1490 1493 1497 1501 1504 1507 1511 1514 1516 1519 1521 1523 1525 1526 1527 1527 1528 1528 1527
1500 1503 1495 1495 1496 1502 1513 1517 1516 1528 1530 1532 1523 1512 1494 1476 1474 1473 1471 1470 1470 1472 1476 1480 1485 1488 1492 1495 1499 1502 1505 1509 1512 1514 1517 1519 1521 1522 1523 1524 1524 1525 1524 1524
1487 1498 1495 1495 1497 1500 1503 1509 1522 1526 1531 1531 1522 1514 1500 1481 1475 1473 1471 1470 1470 1472 1475 1479 1483 1487 1490 1494 1497 1501 1504 1507 1510 1512 1514 1516 1518 1519 1520 1521 1521 1521 1521 1521
1481 1492 1498 1497 1498 1501 1506 1510 1512 1520 1524 1527 1525 1511 1486 1481 1476 1474 1471 1469 1469 1471 1474 1477 1481 1485 1488 1492 1495 1498 1501 1504 1507 1509 1512 1514 1515 1516 1517 1518 1518 1518 1517 1517
1476 1488 1498 1496 1492 1492 1495 1499 1507 1516 1519 1523 1522 1508 1477 1476 1474 1472 1470 1469 1469 1470 1472 1475 1478 1482 1485 1488 1491 1494 1497 1501 1504 1506 1509 1510 1512 1513 1513 1514 1514 1514 1514 1513
1472 1485 1497 1498 1499 1496 1495 1496 1497 1502 1510 1522 1521 1502 1475 1474 1471 1470 1469 1468 1468 1469 1471 1473 1475 1478 1481 1484 1487 1490 1494 1497 1500 1503 1505 1507 1508 1509 1510 1510 1510 1510 1509 1508
1463 1477 1482 1487 1486 1487 1492 1492 1494 1499 1506 1511 1506 1492 1478 1473 1471 1468 1468 1467 1467 1467 1468 1469 1471 1473 1476 1479 1483 1486 1489 1493 1496 1499 1501 1503 1504 1505 1506 1506 1506 1506 1505 1504
1461 1471 1474 1474 1474 1479 1480 1483 1488 1490 1489 1493 1488 1485 1473 1469 1468 1466 1465 1465 1465 1465 1465 1466 1467 1469 1471 1474 1478 1481 1484 1488 1491 1494 1496 1499 1500 1501 1502 1502 1502 1501 1500 1499
1459 1466 1471 1472 1473 1476 1477 1477 1481 1482 1482 1483 1482 1478 1464 1463 1464 1463 1462 1462 1461 1461 1462 1463 1464 1465 1467 1470 1472 1476 1479 1483 1487 1490 1492 1495 1496 1497 1497 1497 1497 1496 1495 1493
1458 1465 1473 1476 1472 1475 1478 1470 1472 1474 1472 1473 1474 1465 1458 1460 1459 1458 1458 1458 1458 1459 1459 1460 1461 1462 1464 1466 1468 1471 1475 1479 1482 1486 1488 1490 1492 1493 1493 1493 1492 1491 1489 1487
1452 1460 1469 1476 1477 1481 1464 1455 1456 1460 1460 1461 1458 1455 1453 1454 1454 1454 1454 1455 1455 1456 1457 1458 1459 1460 1462 1463 1465 1468 1471 1475 1479 1482 1484 1486 1487 1488 1488 1488 1487 1485 1483 1481
1444 1455 1469 1477 1476 1471 1460 1452 1453 1457 1456 1450 1451 1449 1450 1451 1452 1451 1451 1452 1453 1455 1456 1457 1458 1458 1459 1461 1463 1465 1468 1472 1475 1478 1481 1482 1483 1484 1483 1483 1481 1480 1477 1474
1447 1450 1463 1473 1471 1470 1453 1443 1443 1450 1453 1441 1442 1444 1446 1450 1455 1451 1449 1450 1452 1453 1454 1455 1456 1457 1458 1460 1462 1464 1467 1470 1473 1475 1477 1479 1479 1479 1478 1477 1476 1473 1470 1467
1451 1455 1461 1466 1464 1460 1444 1441 1444 1456 1448 1436 1437 1438 1442 1445 1446 1447 1447 1449 1450 1452 1453 1454 1455 1456 1457 1459 1461 1463 1466 1469 1471 1473 1474 1475 1475 1474 1473 1472 1469 1467 1463 1460
1440 1452 1458 1462 1462 1456 1435 1440 1442 1438 1433 1434 1434 1436 1439 1441 1443 1445 1446 1448 1449 1450 1452 1453 1454 1455 1456 1458 1461 1463 1465 1467 1468 1469 1470 1470 1470 1469 1467 1465 1463 1460 1456 1452
1432 1431 1436 1439 1438 1429 1428 1428 1429 1430 1431 1432 1433 1435 1437 1439 1441 1443 1445 1447 1448 1449 1450 1451 1453 1454 1456 1458 1460 1461 1463 1464 1465 1466 1466 1466 1465 1464 1461 1459 1456 1452 1449 1444
1427 1427 1431 1433 1429 1425 1424 1425 1426 1427 1429 1430 1432 1434 1436 1437 1440 1442 1443 1445 1446 1447 1449 1450 1452 1453 1455 1456 1458 1459 1460 1461 1461 1462 1461 1461 1459 1457 1455 1452 1449 1445 1441 1437
1416 1423 1426 1427 1423 1421 1420 1420 1422 1424 1426 1428 1430 1432 1434 1436 1438 1439 1441 1442 1444 1445 1447 1448 1450 1452 1453 1454 1456 1456 1457 1457 1457 1457 1456 1454 1452 1450 1447 1444 1441 1437 1433 1430
1412 1414 1419 1418 1413 1415 1414 1415 1418 1420 1422 1425 1427 1430 1432 1434 1435 1437 1438 1440 1441 1443 1445 1446 1448 1450 1451 1452 1453 1453 1453 1453 1452 1451 1450 1448 1445 1442 1439 1435 1431 1428 1426 1421